Home > Time Zones > World Clock > Weather > Norway > Sola > Past weeks

Flag for Norway Weather past 2 weeks in Sola, Norway

Now
57 °F

Overcast.


Feels Like: 57 °F
Forecast: 56 / 66 °F
Wind: 2 mph from South

Location: Stavanger / Sola

Current Time: Aug 29, 2015 at 5:46:30 AM

Latest Report: Aug 29, 2015 at 3:00 AM


Visibility: 12 mi

Pressure: 29.94 "Hg

Humidity: 88%

Dew point: 54 °F

Location of SolaLocation

Historic Weather in Sola — Graph

°F

Sola temperature yesterday

Maximum temperature yesterday: 64 °F (at 4:00 PM)
Minimum temperature yesterday: 54 °F (at 2:00 AM)
Average temperature yesterday: 60 °F

Past Weeks' High & Low Weather Summary

 TemperatureHumidityPressure
High80 °F (Aug 14, 4:00 PM)98% (Aug 15, 11:00 PM)30.25 "Hg (Aug 15, 11:00 PM)
Low51 °F (Aug 14, 4:00 AM)29% (Aug 14, 4:00 PM)29.47 "Hg (Aug 27, 1:00 PM)
Average66 °F67%29.94 "Hg
* Reported Aug 14 3:00 AM — Aug 29 3:00 AM, Sola, Weather by CustomWeather, © 2015

Note: Actual official high and low records may vary slightly from our data, if they occured in-between our weather recording intervals... More about our weather records

Advertising

Sola weather history for previous 24 hours

 ConditionsComfort  
Time TempWeatherWind HumidityBarometerVisibility
3:00 AM
Sat, Aug 29
57 °FOvercast.2 mph88%29.94 "Hg12 mi
2:00 AM59 °FPassing clouds.3 mph81%29.93 "Hg16 mi
1:00 AM59 °FOvercast.3 mph80%29.93 "Hg16 mi
11:00 PM
Fri, Aug 28
59 °FPassing clouds.7 mph80%29.89 "Hg18 mi
9:00 PM60 °FPassing clouds.7 mph78%29.86 "Hg17 mi
8:00 PM60 °FScattered clouds.6 mph76%29.85 "Hg16 mi
7:00 PM61 °FScattered clouds.7 mph77%29.84 "Hg15 mi
6:00 PM62 °FPassing clouds.8 mph68%29.83 "Hg12 mi
5:00 PM62 °FPassing clouds.9 mph69%29.83 "Hg17 mi
4:00 PM64 °FPassing clouds.9 mph69%29.81 "Hg14 mi
3:00 PM64 °FScattered clouds.8 mph71%29.80 "Hg19 mi
2:00 PM63 °FPassing clouds.8 mph71%29.80 "Hg15 mi
1:00 PM62 °FPartly sunny.7 mph72%29.79 "Hg14 mi
12:00 PM62 °FScattered clouds.7 mph69%29.78 "Hg17 mi
11:00 AM60 °FPartly sunny.7 mph75%29.76 "Hg17 mi
10:00 AM60 °FScattered clouds.7 mph76%29.74 "Hg13 mi
9:00 AM60 °FPartly sunny.7 mph80%29.71 "Hg14 mi
8:00 AM58 °FScattered clouds.7 mph84%29.68 "Hg11 mi
7:00 AM57 °FLight mixture of precip. Overcast.5 mph87%29.67 "Hg4 mi
5:00 AM58 °FPassing clouds.3 mph80%29.64 "Hg19 mi
Weather by CustomWeather, © 2015

See weather overviewHow to use our weather pages